Wind_Speed
22 23 23 24 25 26 27 26 27 28 30 33 35 36 37 39 41 41 42 43 43 43 42 42 44 45 45 45 45 44 44 43 41 41 40 39 38 38 38 39 40 40 39 39
21 21 21 22 24 25 25 25 25 26 27 29 31 32 34 37 39 40 41 43 44 43 43 43 44 44 45 45 45 46 45 44 43 42 42 42 40 40 40 41 41 41 41 41
19 18 19 20 21 22 23 22 21 21 24 24 26 30 32 33 36 38 39 42 43 43 43 43 44 44 45 45 44 45 45 44 43 43 45 44 43 42 42 43 42 42 43 43
18 18 19 19 20 20 21 19 18 18 19 21 22 26 28 29 32 35 38 40 41 42 43 43 43 44 45 46 46 46 45 45 44 44 45 46 46 45 44 43 43 44 44 43
17 17 17 17 18 19 19 18 19 19 19 20 21 24 23 26 29 31 35 38 40 42 43 44 44 44 45 46 46 47 47 46 46 46 46 46 46 47 46 44 45 45 44 44
15 15 16 16 17 18 18 18 19 20 20 21 20 23 22 23 26 28 31 35 38 40 41 43 43 43 44 46 46 46 47 47 48 47 47 47 46 46 46 45 45 45 45 46
15 15 15 15 16 17 18 17 19 20 20 21 20 21 21 21 23 26 29 32 36 37 39 41 41 42 42 43 44 45 47 47 47 48 48 47 48 47 47 47 46 46 46 44
17 16 16 16 17 17 19 18 19 20 21 22 21 22 20 19 20 24 27 29 32 34 36 37 39 40 40 41 42 43 44 45 46 46 46 46 46 47 47 47 46 46 45 46
18 17 17 17 18 18 19 19 19 20 20 21 22 22 20 20 21 22 25 27 30 33 34 35 37 39 39 40 40 40 41 42 43 44 45 45 45 45 45 46 46 47 47 47
18 17 18 19 19 18 18 19 20 20 21 22 22 21 20 20 22 23 23 25 28 31 32 34 36 38 39 39 39 39 40 40 41 42 43 43 43 44 44 45 46 46 47 46
17 18 18 20 20 19 19 19 21 22 22 23 23 21 19 21 22 22 24 24 26 29 31 33 35 37 39 39 39 40 39 40 41 42 43 43 43 44 44 45 46 46 46 46
17 19 19 19 21 20 20 20 21 22 23 22 23 22 21 21 22 23 24 25 26 28 29 31 33 36 37 38 39 39 40 39 40 43 43 44 44 45 45 45 45 46 46 46
19 20 21 21 21 22 22 20 21 21 22 22 22 22 23 23 23 24 25 25 27 28 30 32 34 36 37 39 40 39 39 39 40 41 42 43 44 44 44 45 46 46 46 45
20 20 21 22 21 21 22 23 22 23 23 23 23 22 23 25 25 25 26 27 28 28 29 32 34 35 36 38 39 40 40 40 40 40 41 43 44 44 44 44 46 46 46 46
20 20 21 22 22 22 21 23 24 24 24 24 23 23 23 24 25 26 27 27 28 29 30 31 33 35 36 37 38 39 40 41 40 40 41 43 43 44 45 45 45 45 46 46
20 21 22 22 22 23 23 22 24 25 25 25 25 23 22 24 26 26 27 28 29 29 30 32 32 34 35 37 38 39 41 41 41 41 42 43 43 43 44 44 44 44 44 45
19 20 22 23 23 22 23 21 22 24 25 26 25 23 24 25 25 26 27 28 29 30 30 32 33 33 35 36 38 39 41 42 43 43 43 43 44 43 43 43 43 42 43 43
18 19 21 22 22 23 21 21 21 22 23 24 24 23 24 25 26 26 26 28 28 28 29 31 32 33 35 36 37 39 41 42 43 44 44 44 44 44 45 44 43 43 42 42
19 20 21 21 22 22 22 22 23 24 24 25 25 25 25 26 26 26 26 27 28 28 29 30 31 32 34 35 36 37 39 40 42 43 43 43 43 43 44 44 42 42 41 41
20 20 22 22 23 23 22 22 23 24 24 24 25 26 27 27 27 26 27 27 28 29 30 30 31 32 33 34 35 36 38 39 40 40 40 41 41 41 42 42 41 40 40 39
20 20 21 22 24 24 23 23 24 25 25 24 25 26 26 26 27 27 27 28 28 29 29 29 31 32 33 34 34 36 37 38 38 38 38 38 39 39 40 40 40 40 39 39
22 21 21 22 24 24 25 25 25 26 26 26 26 25 26 26 26 26 26 27 28 28 29 29 30 31 33 34 34 34 35 36 36 36 37 36 37 37 38 39 39 38 37 37
22 23 23 23 23 24 26 27 27 28 28 27 27 25 25 25 25 25 26 26 27 28 29 30 30 31 32 33 34 34 34 34 35 35 35 35 36 35 36 37 38 37 37 37
22 23 24 24 23 23 25 26 27 28 28 28 28 27 26 26 26 26 26 27 28 29 29 30 31 31 32 33 34 35 34 34 34 34 34 34 34 34 35 35 36 36 36 36
23 23 24 25 24 25 24 25 26 27 28 28 28 28 27 26 26 26 27 28 28 29 29 29 30 31 31 32 33 33 34 34 33 33 34 34 34 34 34 34 34 34 34 34
24 24 24 24 25 26 25 26 27 27 27 27 27 28 28 28 27 27 28 28 29 29 30 30 30 30 30 31 30 30 31 31 31 31 32 33 33 33 33 33 33 33 33 34
Wind_Direction
257 253 254 256 256 255 258 257 255 255 253 250 246 243 242 239 238 236 234 231 231 232 232 232 233 234 233 234 235 236 239 239 240 241 242 244 246 247 249 250 253 255 258 261
257 256 260 258 256 254 255 255 255 254 252 252 249 245 244 241 238 236 234 232 231 232 233 234 233 233 234 235 237 239 239 240 241 242 243 245 247 247 249 251 253 255 257 261
259 263 262 258 255 251 251 252 251 251 251 254 253 246 243 241 239 237 235 232 231 233 234 236 234 234 234 236 237 238 238 240 242 243 244 245 247 248 250 253 255 257 259 260
259 263 260 257 255 252 248 248 249 246 250 251 253 251 242 242 242 240 235 234 231 231 233 234 235 235 236 238 239 240 240 241 242 244 245 247 249 251 253 254 257 258 260 261
260 263 260 256 254 250 250 249 249 248 253 252 252 258 247 243 245 241 237 234 233 233 232 232 235 237 238 239 240 242 242 243 243 244 246 248 250 252 253 254 256 259 260 261
264 262 259 256 253 249 250 252 251 252 255 254 252 257 252 246 245 241 238 235 235 235 234 233 234 237 239 240 241 242 241 243 245 246 247 249 251 253 254 256 259 259 261 263
261 262 258 253 249 246 246 251 252 254 254 255 255 257 255 248 244 240 239 237 236 236 235 235 236 238 240 241 242 244 243 245 246 248 249 251 252 254 257 258 261 261 262 264
261 259 256 252 250 249 250 254 254 255 257 257 259 257 254 250 246 239 238 237 238 237 237 237 237 239 242 244 245 246 246 246 247 248 249 251 253 255 257 259 261 261 262 263
260 258 258 255 254 254 255 255 257 258 260 261 260 260 257 253 253 245 239 238 241 239 239 239 239 240 241 244 246 248 249 248 248 249 250 253 255 257 258 260 262 264 264 265
257 257 257 255 253 257 255 255 258 258 262 264 261 260 260 256 254 249 245 244 244 242 242 243 242 242 243 246 248 249 251 250 250 250 251 253 255 257 258 260 262 264 264 265
261 259 255 253 251 254 254 254 256 258 263 266 263 263 267 262 257 252 250 250 249 246 248 248 246 244 245 247 249 250 252 252 251 252 253 254 255 257 260 262 264 264 264 264
268 262 258 256 252 255 256 255 258 260 264 265 265 264 266 266 262 257 255 253 252 252 251 251 249 246 246 248 250 252 253 254 254 254 255 255 256 258 260 263 264 265 265 265
270 264 260 256 255 254 256 257 258 261 264 264 266 267 268 267 266 261 257 255 254 256 255 253 251 250 249 250 251 253 255 255 255 256 256 257 258 259 261 263 263 263 264 265
270 263 261 259 259 258 259 259 258 258 262 264 267 269 270 269 266 262 258 256 255 257 257 256 254 252 253 253 252 254 255 257 259 258 257 259 260 260 261 262 263 264 264 265
272 265 263 262 261 261 261 259 257 258 263 265 268 269 272 271 268 261 258 257 257 257 257 257 256 254 254 255 255 254 256 258 260 259 259 260 261 261 262 263 264 264 265 264
274 269 265 262 263 263 261 260 259 260 263 266 268 269 269 269 267 264 260 259 260 260 259 258 258 258 258 257 257 256 258 260 261 261 262 262 262 262 263 264 264 264 265 265
275 271 266 263 264 263 261 262 263 262 262 265 266 268 268 266 267 267 264 263 263 264 262 260 260 261 260 260 260 260 261 261 263 264 264 265 263 263 264 265 265 266 266 265
276 274 270 266 265 263 264 266 267 266 264 266 267 268 269 268 266 266 266 265 265 265 265 262 262 262 261 262 263 264 264 264 264 264 265 265 264 264 265 265 266 267 267 266
274 274 272 268 266 267 265 269 272 270 267 268 269 269 271 270 269 267 265 263 264 265 265 265 264 264 264 264 266 267 267 267 266 266 265 265 266 265 265 264 266 267 267 267
275 274 273 271 269 270 268 269 272 273 271 270 271 271 271 271 270 268 268 268 266 266 266 266 266 266 267 268 268 270 270 269 269 267 265 265 266 265 265 264 265 266 266 266
275 273 272 272 271 270 270 271 272 273 274 273 274 273 272 272 272 272 271 270 269 267 266 268 268 268 269 270 271 272 272 271 270 268 266 267 267 265 264 264 264 265 266 266
273 273 273 274 273 272 273 273 274 275 274 273 273 273 272 273 273 272 272 271 272 270 269 270 272 272 272 272 273 274 272 270 270 270 268 267 266 265 264 263 263 263 265 265
274 274 274 274 276 277 276 276 275 275 274 273 272 271 271 272 272 272 272 272 273 274 273 272 273 274 275 275 275 275 274 272 271 270 268 266 264 264 263 263 264 265 265 266
276 276 275 276 278 279 280 279 277 275 274 272 270 270 272 273 272 273 273 274 275 276 276 274 273 275 276 277 277 275 275 275 273 269 266 265 264 264 263 264 265 265 265 266
275 276 277 276 277 278 280 280 280 279 276 272 270 270 270 272 273 273 275 277 277 277 277 276 276 276 277 278 278 276 274 275 274 270 267 266 265 265 265 265 265 264 264 266
273 276 278 278 277 278 279 280 280 280 277 273 272 270 269 270 272 274 275 277 278 277 278 278 277 276 277 278 278 278 276 274 272 272 270 268 267 267 266 265 263 263 264 265
Height
5646 5648 5648 5649 5650 5651 5653 5654 5654 5657 5658 5659 5661 5665 5670 5673 5677 5683 5689 5695 5701 5707 5713 5718 5723 5728 5734 5739 5743 5747 5751 5755 5759 5762 5766 5769 5772 5775 5777 5779 5781 5783 5784 5785
5642 5643 5644 5644 5645 5645 5647 5648 5649 5651 5652 5653 5655 5658 5662 5666 5670 5675 5681 5687 5693 5699 5704 5709 5714 5720 5725 5730 5735 5739 5743 5747 5751 5754 5757 5760 5764 5766 5768 5770 5772 5773 5775 5777
5638 5640 5639 5640 5640 5641 5642 5643 5645 5646 5648 5649 5650 5652 5656 5659 5663 5668 5673 5679 5685 5691 5696 5701 5706 5712 5717 5722 5726 5729 5734 5738 5742 5745 5748 5751 5754 5756 5759 5761 5763 5765 5766 5767
5635 5636 5636 5636 5637 5637 5638 5640 5641 5642 5643 5645 5646 5645 5651 5653 5656 5660 5665 5670 5677 5682 5688 5693 5698 5703 5708 5713 5717 5721 5724 5729 5732 5736 5739 5742 5745 5747 5750 5752 5753 5755 5756 5757
5633 5633 5633 5633 5635 5635 5636 5638 5639 5640 5640 5641 5642 5641 5646 5648 5651 5654 5658 5663 5668 5674 5679 5685 5690 5695 5700 5704 5708 5711 5714 5719 5722 5726 5729 5732 5734 5737 5739 5741 5743 5744 5746 5747
5630 5630 5631 5631 5632 5633 5634 5636 5637 5637 5637 5637 5638 5637 5640 5643 5646 5649 5653 5657 5661 5666 5671 5676 5682 5686 5690 5695 5698 5702 5705 5709 5713 5716 5719 5721 5724 5727 5729 5731 5732 5734 5736 5736
5628 5628 5629 5630 5630 5631 5632 5633 5633 5632 5632 5633 5634 5633 5637 5640 5643 5645 5648 5651 5655 5659 5664 5668 5673 5678 5682 5686 5689 5692 5696 5700 5703 5706 5709 5711 5714 5716 5719 5720 5722 5724 5725 5726
5625 5626 5627 5627 5628 5628 5628 5629 5630 5629 5629 5630 5631 5631 5635 5636 5639 5641 5644 5647 5649 5653 5657 5662 5666 5670 5673 5677 5680 5683 5687 5690 5693 5696 5699 5701 5704 5706 5708 5710 5711 5713 5714 5715
5622 5623 5624 5624 5624 5625 5625 5626 5627 5627 5626 5627 5627 5629 5631 5633 5635 5637 5640 5642 5645 5647 5651 5655 5658 5662 5665 5668 5671 5674 5677 5680 5683 5686 5689 5691 5694 5696 5698 5699 5701 5702 5703 5704
5619 5620 5621 5621 5621 5622 5623 5623 5624 5623 5622 5622 5624 5625 5628 5629 5630 5632 5635 5637 5639 5642 5645 5648 5651 5654 5657 5660 5663 5665 5668 5671 5673 5676 5678 5681 5684 5686 5688 5689 5690 5691 5691 5692
5615 5616 5617 5617 5617 5618 5619 5620 5619 5619 5620 5620 5620 5625 5625 5625 5626 5628 5630 5632 5634 5637 5639 5641 5644 5647 5649 5652 5654 5657 5659 5662 5664 5667 5669 5671 5673 5675 5677 5678 5679 5680 5680 5681
5611 5612 5612 5613 5614 5614 5615 5616 5616 5617 5617 5617 5617 5623 5621 5622 5622 5623 5625 5627 5629 5631 5632 5634 5637 5639 5641 5643 5645 5648 5650 5652 5655 5657 5659 5661 5662 5664 5666 5668 5669 5669 5670 5671
5607 5608 5608 5609 5611 5611 5610 5611 5611 5612 5613 5613 5613 5619 5617 5618 5618 5619 5620 5621 5623 5624 5626 5627 5629 5631 5633 5634 5637 5638 5641 5643 5645 5647 5649 5650 5651 5654 5656 5657 5658 5659 5659 5660
5602 5603 5604 5605 5605 5605 5606 5607 5607 5607 5608 5608 5610 5612 5613 5612 5612 5613 5614 5615 5616 5618 5619 5620 5621 5622 5624 5626 5627 5629 5631 5633 5635 5636 5638 5640 5641 5643 5645 5646 5647 5648 5648 5649
5597 5598 5598 5599 5600 5600 5601 5602 5602 5602 5603 5604 5606 5606 5608 5606 5606 5607 5608 5609 5610 5611 5611 5612 5613 5614 5615 5617 5618 5620 5622 5624 5625 5626 5628 5630 5631 5633 5634 5635 5636 5637 5637 5638
5593 5593 5594 5594 5594 5594 5595 5597 5597 5597 5598 5599 5600 5601 5602 5600 5600 5600 5601 5602 5603 5604 5604 5604 5605 5606 5607 5608 5609 5611 5612 5614 5615 5617 5618 5619 5620 5622 5623 5624 5625 5625 5626 5626
5588 5588 5588 5589 5589 5588 5590 5593 5592 5592 5593 5594 5594 5597 5595 5595 5594 5594 5595 5596 5596 5596 5596 5597 5597 5598 5598 5599 5600 5601 5602 5604 5605 5606 5607 5608 5609 5611 5612 5613 5614 5614 5614 5615
5584 5583 5582 5583 5584 5583 5589 5587 5587 5586 5587 5587 5588 5589 5588 5588 5588 5588 5588 5588 5588 5589 5589 5589 5589 5590 5590 5591 5591 5591 5592 5593 5594 5595 5596 5596 5598 5599 5600 5601 5602 5602 5603 5604
5579 5578 5577 5577 5577 5578 5582 5582 5581 5580 5582 5582 5581 5582 5582 5581 5582 5583 5582 5581 5581 5581 5581 5581 5581 5582 5582 5582 5582 5582 5582 5582 5583 5584 5584 5585 5586 5587 5589 5590 5590 5591 5592 5593
5573 5573 5573 5572 5571 5572 5577 5576 5574 5575 5575 5576 5575 5575 5575 5575 5575 5576 5575 5574 5574 5574 5574 5573 5573 5573 5573 5573 5573 5573 5572 5572 5572 5573 5573 5574 5574 5576 5577 5578 5579 5580 5581 5583
5568 5567 5567 5566 5565 5567 5570 5569 5568 5569 5570 5569 5568 5567 5567 5567 5568 5568 5567 5567 5566 5566 5566 5566 5565 5565 5565 5564 5564 5563 5563 5562 5562 5562 5563 5563 5564 5565 5566 5567 5568 5570 5571 5572
5563 5562 5562 5561 5560 5564 5563 5562 5562 5562 5561 5560 5560 5560 5560 5560 5560 5560 5560 5559 5559 5558 5559 5558 5558 5557 5556 5555 5555 5554 5553 5553 5552 5552 5553 5553 5553 5554 5555 5556 5558 5559 5560 5562
5557 5557 5556 5556 5558 5557 5555 5555 5554 5553 5553 5553 5552 5553 5553 5553 5553 5553 5553 5552 5552 5551 5551 5551 5550 5550 5548 5547 5546 5545 5544 5543 5543 5542 5542 5542 5543 5544 5545 5546 5548 5549 5550 5551
5551 5550 5549 5550 5551 5550 5548 5547 5546 5546 5545 5545 5545 5545 5545 5545 5545 5545 5545 5545 5544 5544 5543 5542 5542 5541 5540 5538 5536 5535 5534 5533 5533 5533 5532 5533 5533 5534 5535 5536 5538 5539 5540 5541
5544 5543 5542 5542 5544 5542 5541 5539 5539 5538 5537 5537 5537 5537 5537 5538 5538 5538 5537 5537 5536 5535 5534 5534 5533 5532 5531 5529 5527 5525 5524 5523 5523 5523 5523 5523 5524 5525 5526 5527 5528 5529 5530 5531
5537 5536 5535 5536 5536 5535 5534 5532 5531 5530 5529 5529 5529 5529 5529 5529 5529 5529 5529 5528 5528 5527 5526 5525 5524 5523 5521 5520 5518 5516 5515 5514 5514 5514 5514 5514 5515 5515 5516 5517 5519 5519 5521 5522